Dewpoint
71 70 68 68 69 68 66 64 57 60 58 54 55 59 59 63 63 62 62 64 62 63 66 63 55 59 59 57 58 58 61 61 62 52 56 65 71 70 69 71 71 71 71 72 74 75 75 76 76 76 76 77 77 77 77 77 76 76 76 76 76 76 76 76 76 76 76 75 76 76 76 76 76 75 75 75 75 74 74 74 74 75 74 75 75 75 74 75 74 76 75 75 75 75 75 75 75
68 68 67 67 67 67 63 63 59 57 58 55 57 56 59 61 60 60 59 62 64 63 65 56 56 57 58 58 59 60 61 62 63 63 64 67 68 69 70 71 70 70 71 72 73 74 75 76 76 76 77 77 77 77 77 77 76 76 76 76 77 77 76 76 76 76 75 76 76 76 76 76 75 75 75 76 75 74 74 74 75 75 74 75 75 75 74 74 74 74 75 75 75 75 75 75 75
65 66 64 66 65 63 69 63 57 55 55 54 58 62 61 58 61 61 60 63 60 60 56 55 56 55 56 57 58 60 60 62 63 64 65 68 68 69 70 70 69 69 70 72 72 73 75 76 77 77 77 77 77 77 77 76 76 77 77 77 76 76 76 76 75 75 75 76 76 76 75 76 75 75 75 75 75 75 75 75 75 75 75 75 75 75 75 75 75 75 75 74 75 75 75 75 74
67 66 64 63 62 64 64 63 58 56 55 54 56 59 62 61 62 62 66 62 60 56 54 59 58 58 58 58 59 61 60 61 63 64 65 66 68 69 68 69 70 68 69 70 71 72 74 77 77 76 76 77 77 77 76 76 77 77 77 76 76 76 76 75 75 75 75 75 75 76 75 75 75 75 74 74 75 75 75 75 75 75 75 75 75 75 75 74 74 74 74 74 75 75 75 74 74
71 69 66 63 63 62 62 60 58 60 54 59 52 59 62 60 62 64 64 61 61 54 58 58 58 58 59 58 59 60 61 61 63 64 65 66 68 68 67 67 68 67 68 69 70 72 75 77 77 77 77 77 76 76 77 77 77 77 76 76 76 76 76 75 75 75 75 75 74 75 75 75 75 75 74 75 75 75 75 75 75 75 75 75 75 75 74 74 74 74 74 74 75 75 75 75 74
72 69 67 64 63 68 64 59 57 56 58 60 55 57 61 61 62 62 62 61 54 61 57 58 57 57 57 57 60 59 60 59 62 64 65 67 68 68 67 68 67 67 67 67 69 73 74 77 77 77 76 76 76 77 77 77 77 76 76 76 76 75 75 75 75 75 75 75 74 75 75 75 75 75 75 75 75 75 74 75 75 75 75 75 74 74 74 74 74 74 74 74 75 74 74 74 74
68 63 64 64 65 67 58 57 59 59 58 61 62 60 61 62 64 62 58 57 62 60 59 59 59 58 58 59 60 61 60 61 61 63 66 67 68 68 67 67 66 66 67 67 69 72 74 77 77 77 76 76 76 77 77 77 76 76 76 75 75 74 74 75 74 74 74 74 75 76 75 75 75 75 75 75 75 74 75 75 75 76 76 75 75 75 75 74 74 74 74 74 75 75 74 75 74
67 62 64 60 61 62 58 59 57 60 59 60 59 62 63 65 65 64 59 55 60 60 58 58 58 58 56 60 59 59 60 62 62 64 66 67 66 66 65 66 65 65 66 68 71 74 77 77 76 76 77 77 77 76 77 76 76 75 75 75 75 75 75 74 75 74 74 75 76 75 75 74 75 75 75 75 75 75 75 75 75 75 75 75 75 75 75 75 75 75 74 74 74 75 75 75 75
66 62 66 63 59 59 58 57 56 59 59 60 61 65 67 65 65 65 62 59 57 58 56 57 58 56 57 58 59 61 62 63 63 65 65 65 65 65 65 65 65 65 68 71 73 74 75 76 76 76 77 77 76 76 76 76 75 75 75 75 75 75 75 75 75 75 75 75 75 75 74 75 75 74 74 75 75 76 76 75 75 75 74 74 75 74 74 75 75 75 75 74 74 75 75 75 74
64 63 64 63 61 56 57 60 60 61 58 61 61 64 65 66 65 66 62 57 58 58 58 59 58 58 59 58 61 62 62 64 63 63 64 64 64 64 64 64 65 67 69 71 72 73 74 78 76 76 76 76 76 76 76 75 76 76 76 75 75 75 75 75 75 75 74 74 75 75 75 75 75 75 75 75 75 75 75 75 75 74 75 75 75 74 74 74 74 74 75 74 74 74 74 75 75
62 64 63 60 57 57 56 57 58 58 62 64 64 66 65 65 64 63 64 58 58 59 60 59 59 58 59 59 62 64 63 63 62 61 63 63 64 64 63 64 66 67 68 70 72 74 75 75 77 76 76 76 76 76 76 76 76 76 76 76 76 76 76 76 76 75 75 75 75 75 75 75 75 75 75 75 75 75 76 75 74 74 74 74 74 74 75 75 74 74 74 74 74 74 76 76 75
61 65 63 56 57 56 59 58 59 60 64 65 64 66 67 65 67 63 62 59 59 59 61 61 60 60 60 59 61 64 63 62 61 61 62 63 63 63 64 64 65 65 68 70 72 73 74 75 75 77 77 77 77 77 76 76 76 76 76 76 76 76 76 76 76 75 74 74 75 75 75 75 76 75 75 75 75 75 75 75 75 74 74 74 74 75 75 75 74 74 74 73 75 75 75 75 75
61 63 62 60 58 59 59 59 61 59 62 64 64 65 67 67 64 66 62 62 59 61 61 63 60 60 59 60 62 63 63 63 62 62 62 62 62 63 63 63 63 66 68 70 71 72 73 74 74 75 76 77 77 76 76 76 76 76 76 75 76 76 76 76 76 76 75 76 76 76 76 76 75 75 75 75 75 75 75 75 74 74 74 74 75 76 75 74 74 74 74 74 75 74 74 74 75
61 64 63 58 57 60 59 61 58 59 60 61 64 67 66 66 65 65 63 61 60 63 62 62 62 62 60 61 61 62 63 63 62 62 61 61 62 62 62 61 63 66 68 69 71 72 72 72 73 74 75 75 75 76 75 75 76 75 75 75 76 76 76 76 76 76 76 76 75 75 75 75 75 75 75 75 74 75 75 75 75 74 74 74 75 76 75 75 74 74 74 74 74 75 75 75 75
68 65 61 60 57 59 55 59 57 58 57 62 63 65 65 65 66 67 64 62 63 65 65 63 63 61 58 59 59 60 62 61 62 61 60 61 61 61 61 61 63 65 66 69 70 70 70 71 72 74 74 74 74 74 75 74 76 75 75 75 75 75 76 76 76 76 76 75 75 75 75 75 75 75 75 75 75 75 75 75 74 74 75 75 75 75 75 75 75 74 74 74 75 75 75 75 75
64 63 62 59 57 56 54 54 57 57 61 64 64 65 64 62 64 66 63 64 62 63 62 61 62 64 60 59 60 61 62 62 61 60 60 60 61 60 61 62 62 64 67 67 68 69 70 71 72 73 73 73 73 73 74 75 75 75 75 75 75 76 76 76 75 75 75 75 75 75 75 75 75 74 75 74 75 75 75 74 74 75 75 75 75 75 75 75 76 75 75 75 75 75 75 75 74
67 65 60 59 56 53 53 55 56 54 62 63 64 64 61 63 65 68 66 64 62 62 64 61 62 60 59 59 61 61 61 62 62 60 60 61 62 60 62 63 63 64 65 66 68 69 69 71 72 72 73 72 72 73 74 74 74 75 75 76 76 76 76 75 75 75 74 75 74 75 75 74 75 75 73 73 75 73 75 75 75 75 76 76 75 75 75 75 76 76 76 76 75 76 75 74 75
65 61 59 57 57 54 57 58 57 61 61 62 63 62 62 61 63 66 66 67 65 64 64 62 60 61 60 61 61 61 60 61 60 59 59 60 61 60 60 62 63 64 64 65 67 68 69 71 72 72 72 73 73 73 74 74 75 75 75 76 75 75 75 75 75 74 75 75 75 75 76 75 75 76 75 74 74 75 75 75 75 76 76 76 76 76 76 76 76 76 76 76 76 75 75 74 75
56 57 59 56 56 56 60 64 63 61 59 61 60 61 61 61 61 62 62 64 64 62 60 61 61 61 60 61 62 62 61 61 59 59 59 58 59 59 61 63 64 64 64 64 66 68 70 71 72 72 73 74 72 73 72 74 74 75 75 75 75 76 76 76 75 75 75 75 76 75 76 75 74 76 76 74 75 74 74 75 75 76 76 76 76 76 76 76 76 76 76 76 76 76 76 77 76
54 53 57 60 60 58 60 61 64 62 62 57 59 61 62 60 60 66 64 62 61 61 59 60 61 60 60 60 62 61 60 60 61 61 60 59 59 59 60 61 63 64 63 64 66 68 70 72 73 73 73 73 72 72 72 73 73 74 74 74 74 75 76 75 75 75 76 75 74 75 75 76 75 77 74 75 74 74 74 75 75 76 76 76 76 76 76 76 76 76 76 76 76 75 75 75 75
52 52 52 55 60 58 60 62 66 63 65 65 65 61 61 60 61 65 63 61 62 64 61 60 61 61 60 61 60 61 60 60 61 61 60 59 59 58 59 61 63 64 64 64 67 69 70 72 72 72 73 73 72 72 72 72 73 73 73 73 73 74 75 74 74 74 75 75 75 77 76 75 73 75 75 75 76 75 74 74 74 74 75 75 76 75 75 75 76 76 76 75 75 74 73 74 74
50 54 52 53 58 55 59 60 59 61 62 62 61 61 60 61 58 63 64 64 61 63 63 61 60 60 60 60 61 61 61 60 61 61 59 58 58 58 58 61 62 62 64 64 66 67 70 71 72 72 72 72 72 72 71 72 73 71 72 72 73 73 74 74 73 74 74 75 76 74 74 74 74 75 75 75 78 77 74 73 73 75 75 75 75 75 74 74 74 74 74 74 74 72 71 73 71
45 45 47 51 53 58 60 56 58 61 60 62 60 59 61 60 60 66 66 65 66 69 64 62 61 60 61 61 61 60 61 61 62 61 59 58 58 57 58 59 61 61 63 65 66 67 68 72 73 71 71 73 72 72 72 72 72 71 71 71 72 73 73 74 74 74 75 75 75 73 72 73 73 73 74 75 75 75 75 75 74 76 75 75 75 75 74 76 75 75 75 75 72 71 70 72 73
40 41 43 50 57 58 59 57 56 56 65 66 64 60 59 59 61 64 64 62 66 68 63 60 60 60 61 61 61 61 61 63 62 61 60 58 58 56 57 58 60 63 64 65 65 67 68 70 72 71 71 72 73 72 72 70 71 69 69 73 72 71 70 71 72 72 74 76 74 74 74 74 73 73 74 75 75 75 74 74 75 75 75 76 76 75 75 75 75 76 75 73 73 72 67 67 67
39 37 37 51 57 62 58 60 58 56 62 61 65 62 60 65 66 64 62 61 63 67 62 61 60 59 60 62 61 61 62 62 60 62 60 59 58 57 57 57 59 61 63 64 64 66 67 68 69 71 72 72 72 71 69 69 69 69 70 69 69 71 69 68 70 72 72 73 74 75 75 75 74 73 74 73 75 74 75 74 74 73 75 73 75 74 73 74 74 73 74 76 76 75 71 70 70
38 37 36 37 59 57 58 58 58 55 58 62 61 60 63 62 65 64 65 66 61 63 63 58 59 60 60 59 61 62 62 63 64 61 58 59 58 57 57 57 58 60 62 63 63 65 66 67 67 68 70 70 71 67 70 70 70 70 71 71 71 72 69 68 70 67 70 73 75 77 73 73 73 78 73 74 73 74 74 74 73 73 74 73 72 73 75 75 75 76 75 74 73 71 74 75 74
35 35 36 37 37 42 60 60 64 56 60 62 62 61 63 66 62 58 63 65 62 68 65 60 58 58 59 60 60 62 62 61 60 59 59 59 60 56 56 56 58 60 62 62 62 64 67 66 66 68 69 73 69 67 70 70 71 70 71 69 70 70 70 71 69 67 66 70 75 78 77 77 74 75 75 75 74 74 75 76 74 74 73 76 75 76 76 76 75 76 76 75 77 74 73 76 74
29 33 36 37 37 36 35 40 52 59 57 52 56 52 66 65 61 59 62 64 64 66 64 62 58 59 60 60 60 61 63 61 62 59 58 58 59 58 56 57 57 59 60 61 62 64 64 64 65 67 68 71 71 67 71 69 70 70 72 71 69 71 73 68 68 68 73 73 74 76 77 77 76 76 76 76 73 74 74 75 75 76 76 76 76 75 76 77 77 76 76 78 77 76 75 76 76
25 29 32 33 32 31 36 38 43 53 52 53 53 54 54 59 58 58 61 64 63 64 62 58 60 58 58 60 61 62 61 62 61 60 58 58 60 59 57 58 58 60 60 60 62 63 62 63 65 66 68 71 70 67 68 68 68 67 69 69 71 70 71 71 67 73 75 75 77 78 79 78 77 77 79 76 75 74 74 76 74 76 76 77 76 75 75 77 77 77 77 78 77 75 73 71 69
22 24 27 27 27 27 30 36 39 48 49 52 51 48 55 52 58 61 62 62 62 65 59 56 59 59 59 59 60 61 61 63 61 60 59 59 60 59 59 59 60 60 59 61 60 62 62 63 64 65 68 68 70 67 70 69 68 68 69 68 72 72 69 68 70 74 76 75 78 78 78 78 78 77 78 78 76 74 75 76 75 75 77 75 77 78 77 76 76 76 76 76 73 75 73 74 74
21 22 23 23 23 26 29 32 36 43 49 50 50 47 56 52 56 58 61 60 59 58 58 59 58 56 57 58 59 60 60 61 61 60 60 59 60 60 60 60 59 60 60 59 59 62 62 63 64 64 69 68 68 70 69 70 70 67 67 68 70 72 71 70 67 73 74 74 75 76 77 77 78 78 78 78 77 76 73 73 75 75 77 77 77 77 76 76 76 76 77 76 77 75 74 74 72
23 20 20 21 21 24 26 28 32 37 47 50 49 47 47 48 55 57 60 60 59 59 57 57 60 57 58 59 59 60 60 60 60 60 59 59 60 60 61 61 60 60 60 60 59 61 61 64 66 64 67 68 69 70 70 71 69 70 68 70 71 73 71 68 67 69 70 72 73 75 77 78 78 78 78 78 78 75 73 73 75 77 77 77 77 76 77 75 76 76 76 74 76 73 73 71 74
21 21 20 21 22 23 24 24 27 37 45 49 48 46 48 49 54 58 59 59 60 60 58 60 60 62 59 58 58 58 59 60 60 59 60 60 61 60 61 61 61 61 61 60 59 62 62 64 66 65 66 67 69 67 71 72 72 71 71 67 67 72 66 68 67 67 68 69 71 74 77 78 78 78 77 77 78 75 75 74 76 74 77 77 77 76 75 75 77 72 78 76 76 78 74 68 71
18 19 20 21 22 23 23 23 24 36 42 47 47 45 48 54 56 59 60 59 59 60 60 59 59 59 60 59 59 58 60 60 60 61 59 60 60 61 61 65 62 63 63 61 59 60 61 63 63 65 66 65 70 70 72 70 71 72 70 70 72 69 64 65 65 67 69 69 73 76 77 77 79 78 78 79 79 76 75 74 76 78 77 77 78 77 78 74 75 76 77 78 76 76 75 72 70
14 17 18 19 22 23 22 22 26 33 40 42 47 46 48 53 57 56 60 57 58 60 60 59 59 63 62 61 63 59 59 61 60 61 60 60 61 61 61 62 62 63 62 62 60 64 63 64 65 68 67 66 68 71 74 72 72 72 69 70 69 72 73 67 67 67 67 70 72 76 78 77 78 79 78 78 78 76 76 77 76 77 76 77 76 76 77 76 76 76 76 77 76 77 76 75 73
9 11 13 15 17 21 22 23 24 35 38 40 43 45 47 49 55 56 57 58 57 59 61 59 60 62 65 66 65 64 59 59 60 61 60 60 61 61 61 62 62 63 63 65 63 64 67 65 67 69 69 65 70 71 73 70 70 70 68 69 68 70 72 70 71 68 68 70 74 75 77 78 79 79 78 79 79 78 77 77 77 76 77 77 76 74 74 76 76 75 76 75 75 75 76 76 74
9 7 6 7 12 17 21 23 24 29 35 37 39 45 47 50 51 55 56 57 56 58 60 60 60 64 65 66 64 63 64 59 60 60 61 61 61 62 63 63 63 63 65 66 64 63 67 62 68 68 69 69 71 71 71 69 71 71 70 66 67 67 71 70 67 68 67 70 75 76 77 76 78 79 79 79 79 78 78 78 77 77 77 77 76 76 75 75 77 76 77 77 75 74 76 75 72
17 12 7 5 8 10 17 21 23 23 31 34 38 42 48 51 54 53 55 55 55 55 58 59 61 65 64 65 67 65 65 64 60 60 60 60 61 62 62 63 64 63 65 65 64 64 65 59 66 67 69 70 71 71 72 71 72 70 69 66 66 65 69 69 70 69 65 70 76 77 77 77 77 79 79 79 79 78 77 76 76 77 78 78 77 77 76 76 76 75 75 77 76 75 76 71 72
18 15 10 7 12 15 15 17 21 22 23 30 36 47 45 47 52 54 54 54 53 56 62 62 64 65 64 64 64 65 65 65 61 59 60 60 61 60 61 62 63 63 63 63 65 65 67 62 69 69 69 70 71 72 73 72 72 72 69 67 66 65 66 67 67 67 68 67 71 75 76 77 77 77 78 78 78 78 78 78 78 77 77 77 77 77 77 76 76 74 74 75 75 76 75 74 75
16 13 11 7 9 14 15 15 16 19 21 28 34 34 47 46 47 51 54 53 54 54 58 62 66 66 65 63 65 66 64 66 67 60 59 60 60 61 62 63 63 63 65 64 64 66 65 66 70 70 70 70 72 73 73 72 72 72 73 71 68 66 67 69 71 70 70 68 69 72 76 77 76 75 75 75 76 77 78 78 78 80 78 79 78 76 76 76 75 75 74 75 75 72 70 72 73
16 14 11 6 6 10 13 15 16 17 19 22 27 35 36 47 49 49 53 54 53 53 57 60 65 66 68 68 65 65 65 64 64 61 61 60 61 61 62 64 63 63 64 64 65 64 63 66 70 70 70 71 72 73 73 72 73 72 73 72 71 72 69 68 67 67 68 70 69 72 73 76 76 75 74 75 75 77 78 78 78 79 79 78 78 78 77 75 75 74 75 76 75 74 71 72 74
14 14 11 9 9 8 8 10 13 15 17 20 21 26 31 36 39 44 46 51 53 54 56 59 64 64 68 68 65 63 65 66 65 61 61 61 60 62 63 64 63 63 65 65 65 65 65 67 70 72 70 72 70 73 73 72 72 71 71 72 68 72 68 67 66 66 64 66 64 68 72 72 73 74 75 75 74 76 77 78 78 77 79 80 80 76 76 76 75 75 75 75 75 75 75 73 70
15 15 13 10 9 8 6 6 8 13 17 16 20 19 25 31 31 49 48 49 51 52 52 60 63 62 64 64 63 63 63 64 65 65 67 62 61 61 62 63 63 63 65 65 66 67 67 69 70 72 71 72 71 73 72 72 72 70 70 67 67 70 69 67 70 66 67 68 69 69 73 72 75 73 72 75 75 77 77 78 78 77 77 78 77 77 76 73 73 73 75 76 75 78 76 74 72
16 17 14 11 9 6 4 5 7 8 6 11 17 22 24 27 29 33 43 50 49 51 52 59 60 61 62 62 62 63 63 65 64 66 66 63 61 61 62 63 63 63 64 65 66 67 69 71 71 72 72 73 72 73 72 72 71 71 70 68 67 68 66 70 70 72 71 71 72 68 70 71 74 75 74 77 76 76 77 78 79 78 77 74 77 76 75 73 74 75 76 77 78 78 77 76 72
17 17 15 11 7 7 7 5 5 4 3 11 15 20 27 28 31 32 34 47 49 53 53 55 60 61 61 61 60 60 59 65 65 64 63 62 60 62 62 63 63 63 64 65 66 68 70 71 72 73 73 73 73 74 72 71 72 72 70 69 70 69 70 71 70 71 72 71 69 73 72 71 75 76 77 74 76 76 77 78 78 78 77 77 77 75 73 72 75 77 77 78 78 79 78 78 75
17 17 17 12 8 7 8 8 6 5 7 11 17 18 24 26 25 26 31 43 50 51 52 52 57 59 61 61 58 56 58 60 64 66 65 62 59 61 62 63 63 63 64 67 67 67 68 71 73 73 73 72 73 74 73 72 72 73 70 70 70 69 71 71 70 71 75 74 75 72 76 74 73 74 75 77 77 76 76 77 76 76 76 72 74 74 74 74 75 77 77 76 77 77 80 79 77
17 18 16 12 8 12 16 15 16 12 7 10 11 20 22 22 25 26 28 29 35 43 51 52 53 57 59 60 58 57 58 60 63 63 63 61 60 61 61 62 64 64 65 66 66 67 68 69 73 73 73 72 73 74 73 72 72 72 70 70 70 70 70 71 70 71 72 73 73 71 74 76 73 73 72 75 75 74 76 76 73 74 75 75 76 77 74 72 71 74 75 78 78 77 78 78 76
18 15 11 11 14 16 20 19 22 16 10 10 4 11 19 21 24 24 27 30 30 41 48 51 51 56 60 61 60 59 60 61 62 62 61 61 62 62 62 63 64 65 65 65 65 66 68 70 72 73 74 72 73 74 73 71 72 72 71 70 70 70 69 68 69 71 69 70 70 73 74 77 75 74 74 73 72 70 75 76 75 75 76 77 77 77 76 74 72 72 75 77 77 78 79 79 76
15 13 14 11 15 16 16 19 16 16 15 12 2 2 7 14 21 20 23 24 26 34 49 48 54 58 59 58 58 60 61 61 62 62 61 62 61 62 63 65 67 67 66 67 65 65 68 70 72 73 74 73 73 74 73 72 72 72 71 70 70 70 70 69 69 71 70 71 70 71 75 75 76 75 75 71 71 71 75 76 76 77 78 76 78 78 78 79 79 78 76 74 76 78 79 78 79
12 12 14 15 14 15 17 17 20 17 15 13 8 6 4 8 10 16 16 19 27 30 37 52 52 59 59 59 60 60 60 60 62 62 61 62 63 63 62 63 66 67 65 65 66 67 68 69 72 72 74 74 74 74 74 73 72 72 72 70 70 70 70 69 69 67 70 72 72 71 69 70 74 72 71 73 71 70 72 75 77 76 79 78 79 79 79 79 78 77 79 77 73 77 78 78 78
12 12 12 16 19 14 17 17 17 16 17 13 11 8 13 5 12 5 9 14 19 29 30 46 53 55 58 59 60 59 60 61 60 60 60 61 63 64 61 63 64 66 65 64 65 68 69 69 72 73 74 74 74 74 74 73 72 73 72 71 70 70 69 69 69 67 70 72 70 70 72 70 71 72 72 74 74 76 73 75 76 76 76 78 78 78 76 79 77 77 78 77 79 77 76 75 77
12 13 14 14 16 19 15 18 17 16 15 15 15 13 14 12 17 14 15 11 19 24 29 45 53 55 59 57 56 55 56 57 61 62 63 63 64 64 63 64 66 67 67 65 66 68 69 70 72 73 74 74 74 75 74 74 72 72 72 72 71 70 71 69 70 70 71 72 72 72 73 72 70 72 73 74 72 74 75 74 75 75 77 76 78 78 78 76 78 78 79 78 77 72 76 76 76
15 13 14 14 15 15 20 21 18 19 19 19 21 16 13 14 10 9 14 15 19 25 26 35 56 52 55 54 55 54 52 58 62 61 61 65 63 64 64 64 64 64 64 65 68 68 69 71 72 73 74 74 74 75 75 74 74 73 73 72 71 70 70 68 67 68 63 69 72 72 71 70 70 73 72 71 72 74 75 74 73 72 76 77 77 78 77 77 78 77 76 78 77 73 77 76 76
16 14 16 18 17 16 20 16 22 18 16 20 18 16 16 14 16 14 12 14 15 19 25 27 40 56 55 55 56 56 57 57 58 62 63 63 63 62 62 62 60 61 64 66 68 68 70 70 71 72 73 74 74 74 74 74 74 73 73 73 72 71 68 66 65 67 65 67 70 72 69 70 68 65 67 67 71 73 74 76 74 75 75 74 75 75 76 77 77 77 76 78 77 78 77 77 77
16 15 17 16 18 18 21 21 17 17 16 17 18 20 19 16 22 16 13 12 15 20 26 29 30 55 53 56 55 53 53 55 59 58 59 61 63 64 67 67 63 63 67 67 68 67 67 69 70 71 72 72 72 73 73 74 74 71 72 73 72 72 69 68 67 68 67 66 64 68 68 68 68 68 69 73 73 71 73 74 75 74 75 75 75 75 77 77 77 76 76 76 76 78 78 77 78
19 18 16 16 16 19 20 19 22 23 18 18 17 17 20 20 19 18 19 17 19 17 22 25 29 33 38 45 48 50 52 57 58 60 61 62 61 63 65 65 64 63 65 67 66 65 65 66 69 71 72 73 73 73 73 74 73 73 73 73 73 73 72 70 70 70 68 66 67 66 67 65 68 68 67 68 73 70 72 72 71 70 70 71 73 73 74 76 76 76 74 73 73 77 76 76 75
17 18 18 18 17 16 16 15 17 18 21 20 20 18 22 24 20 18 23 21 21 20 23 32 29 32 36 37 52 53 52 54 59 59 59 60 64 64 63 64 63 67 71 71 70 69 68 68 69 70 71 72 72 72 72 73 74 73 74 73 72 73 71 71 69 70 69 68 68 67 67 66 68 68 68 67 68 71 72 72 71 72 70 71 73 73 73 75 76 76 76 76 76 76 75 76 77
17 19 17 16 15 17 17 17 15 15 17 22 19 20 26 15 17 18 19 26 23 24 25 25 25 26 37 38 41 54 54 55 58 56 58 61 62 62 62 63 67 68 69 70 71 72 73 73 69 70 70 70 72 72 73 74 74 73 72 73 72 71 71 71 69 68 68 69 68 68 68 69 67 69 69 67 68 67 71 72 71 73 73 72 74 75 72 73 75 76 75 73 73 77 76 75 76